SCP
-0 -0 -0 -0 -0 -0 -0 -0 -0 -0 -0 -0 -0 -0 -0 -0 -0 -0 -0 -0 -0 -0 -0 -0 -0 -0 -0 0 0 0 0 0 0 0 0 0 0 0 0 0 0 -0 -0
-0 -0 -0 -0 -0 -0 -0 -0 -0 -0 -0 -0 -0 -0 -0 -0 -0 -0 -0 -0 -0 -0 -0 -0 -0 -0 -0 0 0 0 0 0 0 0 0 0 -0 -0 -0 0 0 -0 0
-0 -0 -0 -0 -0 -0 -0 -0 -0 -0 -0 -0 -0 -0 -0 -0 -0 -0 -0 -0 -0 -0 -0 -0 -0 -0 -0 0 0 0 0 0 0 0 0 0 0 0 0 0 0 0 0
-0 -0 -0 -0 -0 -0 -0 -0 -0 -0 -0 -0 -0 0 -0 -0 -0 -0 -0 -0 -0 -0 -0 -0 -0 -0 -0 0 0 0 0 0 0 0 0 0 0 0 0 0 0 0 0
0 0 0 0 0 0 0 -0 -0 -0 -0 -0 -0 -0 0 0 -0 -0 -0 0 0 0 0 0 0 0 0 0 0 0 0 0 0 0 0 0 0 0 0 0 0 0 0
0 0 0 0 0 0 0 0 -0 -0 -0 0 -0 0 0 0 0 0 0 0 0 0 0 0 0 0 0 0 0 0 0 0 0 0 0 0 0 0 0 0 0 0 0
0 0 0 0 0 0 0 0 0 -0 -0 -0 0 0 0 0 0 0 0 0 0 0 0 0 0 0 0 0 0 0 0 0 0 0 0 0 0 0 0 0 0 0 0
0 0 0 0 0 0 0 0 0 0 0 0 0 0 0 0 0 0 0 0 0 0 0 0 0 0 0 0 0 0 0 0 0 0 0 0 0 0 0 0 0 0 0
0 0 0 0 0 0 0 0 0 0 0 0 0 0 0 0 0 0 0 0 0 0 0 0 0 0 0 0 0 0 0 0 0 0 0 0 0 0 0 0 0 0 0
0 0 0 0 0 0 0 0 0 0 0 0 0 0 0 0 0 0 0 0 0 0 0 0 0 0 0 0 0 0 0 0 0 0 0 0 0 0 0 0 0 0 0
0 0 0 0 0 0 0 0 0 0 0 0 0 0 0 0 0 0 0 0 0 0 0 0 0 0 0 0 0 0 0 0 0 0 0 0 0 0 0 0 0 0 0
0 0 0 0 0 0 0 0 0 0 0 0 0 0 0 0 0 0 0 0 0 0 0 0 0 0 0 0 0 0 0 0 0 0 0 0 0 0 0 0 0 0 0
0 0 0 0 0 0 0 0 0 0 0 0 0 0 0 0 0 0 0 0 0 0 0 0 0 0 0 0 0 0 0 0 0 0 0 0 0 0 0 0 0 0 0
0 0 0 0 0 0 0 0 0 0 0 0 0 0 0 0 0 0 0 0 0 0 0 0 0 0 0 0 0 0 0 0 0 0 0 0 0 0 0 0 0 0 0
0 0 0 0 0 0 0 0 0 0 0 0 0 0 0 0 0 0 0 0 0 0 0 0 0 0 0 0 0 0 0 0 0 0 0 0 0 0 0 0 0 0 0
0 0 0 0 0 0 0 0 0 0 0 0 0 0 0 0 0 0 0 0 0 0 0 0 0 0 -0 -0 -0 0 0 0 0 0 0 0 0 0 0 0 0 0 0
0 0 0 0 0 0 0 0 0 0 0 0 0 0 0 0 0 0 0 0 0 0 0 0 0 -0 -0 -0 -0 -0 -0 0 0 0 0 0 0 0 0 0 0 0 0
0 0 0 0 0 0 0 0 0 0 0 0 0 0 0 0 0 0 0 0 0 0 0 0 0 -0 -0 -0 -0 -0 0 0 0 0 0 0 0 0 0 0 0 0 0
0 0 0 0 0 0 0 0 0 0 0 0 0 0 0 0 0 0 0 0 0 0 0 0 0 0 0 0 0 0 0 0 0 0 0 0 0 0 0 0 0 0 0
0 0 0 0 0 0 0 0 0 0 0 0 0 0 0 0 0 0 0 0 0 0 0 0 0 0 0 0 0 0 0 0 0 0 -0 -0 -0 -0 -0 -0 0 0 0
0 0 0 0 0 0 0 0 0 0 0 0 0 0 0 0 0 0 0 0 0 0 0 0 0 0 0 0 0 0 0 -0 -0 0 0 0 0 -0 0 0 0 0 0
0 0 0 0 0 0 0 0 0 0 0 0 0 0 0 0 0 0 0 0 0 0 0 0 0 0 0 0 0 0 0 0 0 0 -0 0 0 0 0 0 0 0 0
0 0 0 0 0 0 0 0 0 0 0 0 0 0 0 0 0 0 0 0 0 0 0 0 0 0 0 0 0 0 0 0 0 -0 0 -0 -0 0 0 0 -0 0 0
0 0 0 0 0 0 0 0 0 0 0 0 0 0 0 0 0 0 0 0 0 0 0 0 0 0 0 0 0 0 0 0 0 0 -0 0 -0 -0 -0 -0 0 0 0
0 0 0 0 0 0 0 0 0 0 0 0 0 0 0 0 0 0 0 0 0 0 0 0 0 0 0 0 0 0 0 0 0 0 0 -0 0 0 0 0 0 0 0
0 0 0 0 0 0 0 0 0 0 0 0 0 0 0 0 0 0 0 0 0 0 0 0 0 0 0 0 0 0 0 0 0 0 0 0 0 0 0 0 0 0 0
Wind_Speed_500mb
5 1 2 5 8 5 3 6 12 11 10 9 8 8 9 10 10 11 14 15 16 17 16 14 12 15 20 19 18 18 19 18 20 20 21 22 20 20 19 22 21 18 20
11 4 2 1 3 7 9 5 5 10 13 13 15 15 14 15 18 20 21 21 20 22 24 23 22 23 23 26 23 21 22 23 23 23 23 25 23 22 24 24 23 20 22
14 7 5 4 4 5 8 10 13 14 12 14 16 15 14 16 18 20 19 21 23 24 26 28 30 30 31 31 32 30 27 26 25 26 25 23 22 28 30 29 25 22 23
16 12 6 4 5 8 10 13 14 16 19 20 21 21 21 21 22 24 25 26 26 28 29 29 31 33 34 34 36 38 36 33 33 29 24 21 17 19 35 30 29 25 25
16 7 3 5 5 7 10 11 12 15 18 19 20 25 25 26 27 29 31 32 31 31 33 35 37 37 37 37 37 38 39 40 37 34 23 23 25 20 29 29 28 30 26
13 9 8 5 3 5 6 7 8 9 13 13 15 15 16 17 19 23 26 30 33 36 38 40 41 42 42 42 44 44 44 42 39 38 37 28 29 26 32 31 32 32 31
19 16 12 8 7 7 6 6 8 9 11 12 15 18 20 21 21 23 25 27 28 30 32 37 41 42 42 43 45 48 45 44 44 42 39 37 35 36 35 33 35 37 35
24 20 15 13 12 10 9 11 11 12 14 15 16 16 16 17 19 21 22 24 25 26 29 34 38 40 41 42 45 47 46 47 46 44 43 41 40 46 38 39 39 39 40
29 25 23 20 16 14 13 14 15 14 14 13 12 11 13 16 18 21 24 28 30 30 30 30 31 34 37 42 45 46 46 48 50 47 39 39 35 47 44 42 44 46 44
36 32 29 24 20 18 17 17 16 15 14 12 13 12 12 14 18 22 23 26 29 32 34 34 35 36 36 37 39 44 46 44 45 50 49 34 43 51 54 49 47 49 53
43 40 34 29 25 24 22 20 19 17 15 13 11 11 12 13 15 18 22 25 27 29 31 33 34 35 35 36 37 37 38 40 46 49 52 52 59 66 61 58 55 53 54
49 46 39 35 33 30 28 24 22 20 16 13 12 10 9 11 14 18 22 26 29 32 33 34 35 35 35 37 37 37 36 38 42 44 47 52 62 68 68 67 64 61 60
47 49 47 44 40 37 34 29 26 22 19 18 16 13 11 11 14 19 24 30 35 36 36 35 35 35 37 39 40 42 43 43 42 45 47 51 55 60 66 69 72 70 66
50 52 52 51 46 43 38 35 31 27 24 21 17 14 12 13 16 21 26 30 35 39 40 39 39 40 40 41 43 44 43 45 48 50 52 51 54 56 60 64 70 72 74
54 56 58 56 52 47 43 39 35 31 27 23 20 18 16 16 17 21 25 31 37 41 43 43 43 42 41 42 41 45 47 49 50 52 54 56 57 57 58 61 65 69 74
60 59 58 58 54 50 45 40 36 32 28 25 23 19 17 17 19 22 27 34 41 45 47 47 49 51 52 53 53 53 53 52 52 56 58 59 57 58 59 59 61 64 69
65 60 63 61 58 53 49 44 41 36 33 31 27 23 21 21 21 24 30 35 41 45 46 47 49 53 57 61 64 65 63 63 65 62 59 61 62 60 58 60 63 62 63
65 66 64 63 62 57 54 49 44 40 38 36 30 26 24 23 23 26 30 35 40 44 48 51 53 57 60 65 68 70 71 74 69 68 67 57 52 55 59 59 60 63 68
66 64 69 68 65 61 58 53 49 46 43 38 31 27 27 26 27 29 33 37 42 46 49 52 53 57 62 67 73 75 78 78 79 71 51 59 59 48 46 53 57 60 64
63 65 70 71 69 66 62 57 54 52 48 41 36 34 32 31 30 33 35 39 43 47 48 51 54 55 60 65 72 78 78 81 63 50 58 48 43 60 88 83 68 66 67
66 72 75 74 73 72 70 65 61 58 51 46 42 40 38 37 36 35 36 40 44 47 51 50 53 57 59 60 69 74 86 49 51 54 42 38 65 84 54 73 88 76 76
74 77 77 74 74 75 72 68 64 58 54 49 48 46 44 42 39 35 36 41 46 48 47 48 50 54 54 49 50 62 41 71 9 22 53 60 46 77 63 55 66 80 94
76 78 79 78 78 78 74 71 68 60 56 54 54 52 50 45 40 38 39 43 47 48 45 46 49 52 52 52 45 34 23 26 88 46 58 59 43 72 103 105 93 95 100
69 70 73 77 82 83 81 81 75 69 63 58 56 56 54 46 40 41 43 45 46 48 46 45 47 51 54 54 48 47 46 46 29 78 74 83 101 94 94 111 116 108 107
58 63 69 73 82 88 88 85 79 74 68 61 62 57 52 46 44 45 46 45 47 49 45 45 50 53 56 56 54 54 55 59 58 49 104 120 110 101 97 107 124 121 115
57 61 71 70 79 87 90 88 86 81 75 70 65 59 52 49 48 49 44 46 50 49 46 50 54 59 62 64 65 66 68 63 56 51 66 125 124 120 111 120 124 125 132
Wind_Direction_500mb
191 224 111 144 167 144 89 222 236 242 241 230 228 232 245 252 259 265 270 279 288 299 306 308 315 324 323 317 322 313 298 294 297 297 293 291 292 293 297 301 308 311 294
171 231 86 34 228 197 215 224 214 230 243 250 256 261 266 273 275 281 287 290 290 292 295 299 301 303 303 308 307 311 305 296 291 291 292 292 295 293 292 295 299 300 286
176 174 162 186 252 260 256 229 230 241 250 258 269 279 279 280 283 286 287 289 293 295 296 296 296 296 298 300 301 302 302 300 289 286 290 294 313 312 294 288 289 295 291
181 197 182 199 237 249 259 261 253 251 254 264 276 276 273 272 277 283 287 284 287 288 287 289 291 294 294 296 296 297 298 297 297 297 293 291 284 285 289 281 284 287 289
192 214 321 297 305 301 297 293 281 272 268 268 268 271 281 286 287 289 290 292 292 292 293 295 295 293 293 292 293 292 292 293 294 296 304 304 284 267 270 280 275 283 283
196 232 241 243 289 298 292 291 292 297 295 300 295 298 297 300 300 299 298 300 299 296 294 291 289 290 291 291 290 290 291 292 293 293 289 282 292 292 267 272 274 270 278
205 214 215 214 215 237 259 280 287 291 294 300 305 309 308 305 302 301 301 298 296 296 296 292 288 286 283 282 285 289 294 291 290 290 294 292 283 278 275 267 270 273 269
211 215 220 226 241 252 268 285 293 298 302 304 303 302 306 309 313 315 315 315 319 317 307 299 299 298 295 291 286 284 284 286 286 287 286 284 283 285 281 273 265 266 269
212 215 221 225 234 250 260 268 277 286 293 301 311 322 326 332 338 343 344 345 342 342 338 333 326 318 307 299 295 291 286 285 287 288 290 285 285 278 275 274 269 264 262
214 218 223 226 233 244 254 261 264 276 289 303 315 326 330 338 342 344 344 343 343 344 342 340 337 334 330 324 316 305 297 293 286 280 281 285 273 272 273 269 268 267 265
218 222 223 228 232 238 241 243 253 255 264 277 293 309 329 337 337 338 340 340 338 336 335 333 332 332 331 328 326 322 314 302 292 287 283 281 274 277 280 275 267 263 263
221 224 226 228 230 232 235 235 237 241 244 253 259 270 283 303 328 338 340 339 334 332 329 329 329 327 328 327 325 323 320 314 308 300 292 281 279 279 279 277 275 268 262
222 224 225 226 227 228 231 231 232 235 233 233 236 245 265 298 324 335 338 338 336 332 327 324 324 324 323 323 321 320 320 318 313 306 299 294 289 283 279 274 274 273 269
214 221 222 225 226 226 227 227 229 230 233 239 242 255 278 302 318 326 330 329 327 326 326 326 326 326 324 322 320 316 314 313 311 309 304 300 295 290 285 279 273 268 268
215 219 222 223 223 225 225 225 226 228 229 233 239 253 270 287 302 314 320 323 324 328 330 329 327 325 323 320 319 317 316 315 313 309 306 304 302 298 292 286 279 271 266
217 220 221 222 223 224 224 226 228 229 232 237 247 257 269 281 298 311 318 322 327 328 328 329 331 330 330 328 327 324 320 317 314 310 307 305 301 298 296 292 286 279 272
223 218 222 221 221 223 225 226 229 232 235 240 246 256 266 278 293 307 317 321 323 324 326 328 328 329 329 329 327 325 322 320 318 314 310 307 304 299 294 291 288 286 275
219 219 219 220 222 223 226 227 229 231 234 238 242 250 260 274 288 299 309 312 317 323 326 327 330 329 327 326 324 322 321 319 316 315 310 305 300 300 298 293 287 283 281
218 215 220 222 223 224 226 227 230 234 237 240 244 251 261 269 281 295 302 311 320 324 326 324 324 324 323 322 320 318 317 315 317 313 307 307 304 302 302 305 300 291 282
214 214 221 223 223 224 226 226 229 233 236 240 243 248 259 268 279 287 302 313 319 322 321 319 318 319 319 319 316 315 314 317 308 312 310 307 307 310 311 307 303 298 293
212 214 221 221 221 222 224 226 229 233 235 238 241 247 254 261 272 286 301 309 315 316 317 317 316 319 320 320 319 319 320 334 321 308 283 279 295 303 298 302 302 301 299
213 222 223 221 222 225 228 229 231 233 235 238 241 246 252 261 272 286 296 304 308 307 313 315 315 317 318 324 322 328 327 323 30 259 291 297 297 303 304 298 297 294 294
216 223 224 226 225 229 229 229 229 230 233 238 242 246 251 259 271 283 294 300 299 304 308 310 311 313 313 314 317 313 323 307 314 325 289 298 304 298 301 302 300 298 296
220 223 228 228 230 231 229 231 232 236 238 241 242 243 249 260 272 282 290 293 299 300 301 307 310 311 310 308 306 303 294 286 305 310 300 294 303 305 302 301 300 299 295
219 223 228 229 233 233 232 232 233 233 234 235 240 242 250 261 271 280 285 293 295 295 300 304 306 306 303 299 296 294 289 287 281 271 296 302 299 300 299 294 296 295 291
220 222 227 226 234 234 234 233 233 233 233 234 239 244 250 259 268 275 286 290 291 293 301 302 303 303 300 296 294 291 288 283 277 270 276 292 296 296 293 292 292 294 295
Wind_Speed_850mb
5 1 2 5 8 5 3 6 12 11 10 9 8 8 9 10 10 11 14 15 16 17 16 14 12 15 20 19 18 18 19 18 20 20 21 22 20 20 19 22 21 18 20
11 4 2 1 3 7 9 5 5 10 13 13 15 15 14 15 18 20 21 21 20 22 24 23 22 23 23 26 23 21 22 23 23 23 23 25 23 22 24 24 23 20 22
14 7 5 4 4 5 8 10 13 14 12 14 16 15 14 16 18 20 19 21 23 24 26 28 30 30 31 31 32 30 27 26 25 26 25 23 22 28 30 29 25 22 23
16 12 6 4 5 8 10 13 14 16 19 20 21 21 21 21 22 24 25 26 26 28 29 29 31 33 34 34 36 38 36 33 33 29 24 21 17 19 35 30 29 25 25
16 7 3 5 5 7 10 11 12 15 18 19 20 25 25 26 27 29 31 32 31 31 33 35 37 37 37 37 37 38 39 40 37 34 23 23 25 20 29 29 28 30 26
13 9 8 5 3 5 6 7 8 9 13 13 15 15 16 17 19 23 26 30 33 36 38 40 41 42 42 42 44 44 44 42 39 38 37 28 29 26 32 31 32 32 31
19 16 12 8 7 7 6 6 8 9 11 12 15 18 20 21 21 23 25 27 28 30 32 37 41 42 42 43 45 48 45 44 44 42 39 37 35 36 35 33 35 37 35
24 20 15 13 12 10 9 11 11 12 14 15 16 16 16 17 19 21 22 24 25 26 29 34 38 40 41 42 45 47 46 47 46 44 43 41 40 46 38 39 39 39 40
29 25 23 20 16 14 13 14 15 14 14 13 12 11 13 16 18 21 24 28 30 30 30 30 31 34 37 42 45 46 46 48 50 47 39 39 35 47 44 42 44 46 44
36 32 29 24 20 18 17 17 16 15 14 12 13 12 12 14 18 22 23 26 29 32 34 34 35 36 36 37 39 44 46 44 45 50 49 34 43 51 54 49 47 49 53
43 40 34 29 25 24 22 20 19 17 15 13 11 11 12 13 15 18 22 25 27 29 31 33 34 35 35 36 37 37 38 40 46 49 52 52 59 66 61 58 55 53 54
49 46 39 35 33 30 28 24 22 20 16 13 12 10 9 11 14 18 22 26 29 32 33 34 35 35 35 37 37 37 36 38 42 44 47 52 62 68 68 67 64 61 60
47 49 47 44 40 37 34 29 26 22 19 18 16 13 11 11 14 19 24 30 35 36 36 35 35 35 37 39 40 42 43 43 42 45 47 51 55 60 66 69 72 70 66
50 52 52 51 46 43 38 35 31 27 24 21 17 14 12 13 16 21 26 30 35 39 40 39 39 40 40 41 43 44 43 45 48 50 52 51 54 56 60 64 70 72 74
54 56 58 56 52 47 43 39 35 31 27 23 20 18 16 16 17 21 25 31 37 41 43 43 43 42 41 42 41 45 47 49 50 52 54 56 57 57 58 61 65 69 74
60 59 58 58 54 50 45 40 36 32 28 25 23 19 17 17 19 22 27 34 41 45 47 47 49 51 52 53 53 53 53 52 52 56 58 59 57 58 59 59 61 64 69
65 60 63 61 58 53 49 44 41 36 33 31 27 23 21 21 21 24 30 35 41 45 46 47 49 53 57 61 64 65 63 63 65 62 59 61 62 60 58 60 63 62 63
65 66 64 63 62 57 54 49 44 40 38 36 30 26 24 23 23 26 30 35 40 44 48 51 53 57 60 65 68 70 71 74 69 68 67 57 52 55 59 59 60 63 68
66 64 69 68 65 61 58 53 49 46 43 38 31 27 27 26 27 29 33 37 42 46 49 52 53 57 62 67 73 75 78 78 79 71 51 59 59 48 46 53 57 60 64
63 65 70 71 69 66 62 57 54 52 48 41 36 34 32 31 30 33 35 39 43 47 48 51 54 55 60 65 72 78 78 81 63 50 58 48 43 60 88 83 68 66 67
66 72 75 74 73 72 70 65 61 58 51 46 42 40 38 37 36 35 36 40 44 47 51 50 53 57 59 60 69 74 86 49 51 54 42 38 65 84 54 73 88 76 76
74 77 77 74 74 75 72 68 64 58 54 49 48 46 44 42 39 35 36 41 46 48 47 48 50 54 54 49 50 62 41 71 9 22 53 60 46 77 63 55 66 80 94
76 78 79 78 78 78 74 71 68 60 56 54 54 52 50 45 40 38 39 43 47 48 45 46 49 52 52 52 45 34 23 26 88 46 58 59 43 72 103 105 93 95 100
69 70 73 77 82 83 81 81 75 69 63 58 56 56 54 46 40 41 43 45 46 48 46 45 47 51 54 54 48 47 46 46 29 78 74 83 101 94 94 111 116 108 107
58 63 69 73 82 88 88 85 79 74 68 61 62 57 52 46 44 45 46 45 47 49 45 45 50 53 56 56 54 54 55 59 58 49 104 120 110 101 97 107 124 121 115
57 61 71 70 79 87 90 88 86 81 75 70 65 59 52 49 48 49 44 46 50 49 46 50 54 59 62 64 65 66 68 63 56 51 66 125 124 120 111 120 124 125 132
Wind_Direction_850mb
191 224 111 144 167 144 89 222 236 242 241 230 228 232 245 252 259 265 270 279 288 299 306 308 315 324 323 317 322 313 298 294 297 297 293 291 292 293 297 301 308 311 294
171 231 86 34 228 197 215 224 214 230 243 250 256 261 266 273 275 281 287 290 290 292 295 299 301 303 303 308 307 311 305 296 291 291 292 292 295 293 292 295 299 300 286
176 174 162 186 252 260 256 229 230 241 250 258 269 279 279 280 283 286 287 289 293 295 296 296 296 296 298 300 301 302 302 300 289 286 290 294 313 312 294 288 289 295 291
181 197 182 199 237 249 259 261 253 251 254 264 276 276 273 272 277 283 287 284 287 288 287 289 291 294 294 296 296 297 298 297 297 297 293 291 284 285 289 281 284 287 289
192 214 321 297 305 301 297 293 281 272 268 268 268 271 281 286 287 289 290 292 292 292 293 295 295 293 293 292 293 292 292 293 294 296 304 304 284 267 270 280 275 283 283
196 232 241 243 289 298 292 291 292 297 295 300 295 298 297 300 300 299 298 300 299 296 294 291 289 290 291 291 290 290 291 292 293 293 289 282 292 292 267 272 274 270 278
205 214 215 214 215 237 259 280 287 291 294 300 305 309 308 305 302 301 301 298 296 296 296 292 288 286 283 282 285 289 294 291 290 290 294 292 283 278 275 267 270 273 269
211 215 220 226 241 252 268 285 293 298 302 304 303 302 306 309 313 315 315 315 319 317 307 299 299 298 295 291 286 284 284 286 286 287 286 284 283 285 281 273 265 266 269
212 215 221 225 234 250 260 268 277 286 293 301 311 322 326 332 338 343 344 345 342 342 338 333 326 318 307 299 295 291 286 285 287 288 290 285 285 278 275 274 269 264 262
214 218 223 226 233 244 254 261 264 276 289 303 315 326 330 338 342 344 344 343 343 344 342 340 337 334 330 324 316 305 297 293 286 280 281 285 273 272 273 269 268 267 265
218 222 223 228 232 238 241 243 253 255 264 277 293 309 329 337 337 338 340 340 338 336 335 333 332 332 331 328 326 322 314 302 292 287 283 281 274 277 280 275 267 263 263
221 224 226 228 230 232 235 235 237 241 244 253 259 270 283 303 328 338 340 339 334 332 329 329 329 327 328 327 325 323 320 314 308 300 292 281 279 279 279 277 275 268 262
222 224 225 226 227 228 231 231 232 235 233 233 236 245 265 298 324 335 338 338 336 332 327 324 324 324 323 323 321 320 320 318 313 306 299 294 289 283 279 274 274 273 269
214 221 222 225 226 226 227 227 229 230 233 239 242 255 278 302 318 326 330 329 327 326 326 326 326 326 324 322 320 316 314 313 311 309 304 300 295 290 285 279 273 268 268
215 219 222 223 223 225 225 225 226 228 229 233 239 253 270 287 302 314 320 323 324 328 330 329 327 325 323 320 319 317 316 315 313 309 306 304 302 298 292 286 279 271 266
217 220 221 222 223 224 224 226 228 229 232 237 247 257 269 281 298 311 318 322 327 328 328 329 331 330 330 328 327 324 320 317 314 310 307 305 301 298 296 292 286 279 272
223 218 222 221 221 223 225 226 229 232 235 240 246 256 266 278 293 307 317 321 323 324 326 328 328 329 329 329 327 325 322 320 318 314 310 307 304 299 294 291 288 286 275
219 219 219 220 222 223 226 227 229 231 234 238 242 250 260 274 288 299 309 312 317 323 326 327 330 329 327 326 324 322 321 319 316 315 310 305 300 300 298 293 287 283 281
218 215 220 222 223 224 226 227 230 234 237 240 244 251 261 269 281 295 302 311 320 324 326 324 324 324 323 322 320 318 317 315 317 313 307 307 304 302 302 305 300 291 282
214 214 221 223 223 224 226 226 229 233 236 240 243 248 259 268 279 287 302 313 319 322 321 319 318 319 319 319 316 315 314 317 308 312 310 307 307 310 311 307 303 298 293
212 214 221 221 221 222 224 226 229 233 235 238 241 247 254 261 272 286 301 309 315 316 317 317 316 319 320 320 319 319 320 334 321 308 283 279 295 303 298 302 302 301 299
213 222 223 221 222 225 228 229 231 233 235 238 241 246 252 261 272 286 296 304 308 307 313 315 315 317 318 324 322 328 327 323 30 259 291 297 297 303 304 298 297 294 294
216 223 224 226 225 229 229 229 229 230 233 238 242 246 251 259 271 283 294 300 299 304 308 310 311 313 313 314 317 313 323 307 314 325 289 298 304 298 301 302 300 298 296
220 223 228 228 230 231 229 231 232 236 238 241 242 243 249 260 272 282 290 293 299 300 301 307 310 311 310 308 306 303 294 286 305 310 300 294 303 305 302 301 300 299 295
219 223 228 229 233 233 232 232 233 233 234 235 240 242 250 261 271 280 285 293 295 295 300 304 306 306 303 299 296 294 289 287 281 271 296 302 299 300 299 294 296 295 291
220 222 227 226 234 234 234 233 233 233 233 234 239 244 250 259 268 275 286 290 291 293 301 302 303 303 300 296 294 291 288 283 277 270 276 292 296 296 293 292 292 294 295